Regional Weather Roundup
Issued by NWS

Home | Current Version | Previous Version | Graphics & Text | Print | Product List | Glossary On
Versions: 1 2 3 4 5 6 7 8 9 10 11 12 13 14 15 16 17 18 19 20 21 22 23 24 25 26 27 28 29 30 31 32 33 34 35 36 37 38 39 40 41 42 43 44 45 46 47 48 49 50
000
ASUS45 KTFX 010919
RWRMT
MONTANA HOURLY WEATHER ROUNDUP
NATIONAL WEATHER SERVICE GREAT FALLS MT
319 AM MDT WED OCT 1 2014

NOTE: "FAIR" INDICATES FEW OR NO CLOUDS BELOW 12000 FEET WITH NO
SIGNIFICANT WEATHER AND/OR OBSTRUCTIONS TO VISIBILITY.

* THESE STATIONS ARE NOT UNDER NWS QUALITY CONTROL. THEY DO NOT
   REPORT WEATHER SUCH AS PRECIPITATION OR FOG.

MTZ001>007-043-011000-
WEST OF THE DIVIDE
CITY           SKY/WX    TMP DP  RH WIND       PRES   REMARKS
KALISPELL      CLOUDY    45  45 100 CALM      29.97R
MISSOULA       CLOUDY    46  41  83 N3        30.01S
BUTTE          MOCLDY    34  30  85 CALM      29.98S
MULLAN PASS    CLEAR     34  32  92 NW7       30.01R WCI  28
* ESSEX        N/A       43  42  96 N/A        N/A
* LINCOLN      N/A       42  36  79 SW3G8      N/A
* LOOKOUT PASS N/A       36  36 100 N2         N/A
* POLSON       N/A       44  39  83 SE1        N/A
* RONAN APT    MOCLDY    48  41  77 N/A        N/A
* SEELEY LAKE  N/A       40  39  96 N/A        N/A
* THOMP F APT  PTCLDY    37  26  64 N9G22      N/A   WCI  30
* YAAK HILL    N/A       40  38  93 N/A        N/A
$$

MTZ008-052>055-011000-
SOUTHWEST MONTANA
CITY           SKY/WX    TMP DP  RH WIND       PRES   REMARKS
BOZEMAN        MOCLDY    39  36  89 S8        29.96S WCI  33
DILLON         PTCLDY    37  28  70 S9        29.98S WCI  30
W YELLOWSTONE  CLOUDY    36  36 100 CALM      29.95F
* THREE FORKS  CLEAR     39  10  30 N/A        N/A
* BOULDER HILL N/A       40  23  51 SE2G9      N/A
* MONIDA PASS  N/A       33  30  89 W14        N/A   WCI  23
* RAYNOLDS PAS N/A       35  -1  21 NE12       N/A   WCI  27
* WHITEHALL    N/A       36  30  79 E2G10      N/A
* WISE RIVER   N/A       37  27  67 W6         N/A   WCI  32
$$

MTZ009>010-012-014-046-048-049-054-011000-
EAST SLOPES AND CENTRAL MONTANA
CITY           SKY/WX    TMP DP  RH WIND       PRES   REMARKS
CUT BANK       MOCLDY    43  37  79 W12       29.90R
GREAT FALLS    CLOUDY    43  39  86 SW8       29.91S
HELENA         CLOUDY    45  36  71 W7        29.94R
MALMSTROM AFB  MOCLDY    45  39  80 W10       29.92S
* CONRAD       MOCLDY    45  43  93 N/A        N/A
* EAST GLACIER N/A       38  35  89 N6         N/A   WCI  33
* MONARCH      N/A       37  34  89 SW4        N/A
* PENDROY      N/A       41  39  93 W7         N/A
* SAINT MARY   N/A       34  33  96 SE2        N/A
* SWEET GRASS  N/A       41  39  93 NW16       N/A
* WHITE SULPH  N/A       39  35  86 S2         N/A
$$

MTZ011-013-016-021-035-040-045-047-050-051-011000-
NORTH CENTRAL MONTANA
CITY           SKY/WX    TMP DP  RH WIND       PRES   REMARKS
HAVRE          LGT RAIN  48  43  83 W10       29.83R
LEWISTOWN      CLOUDY    46  43  89 W13       29.88S
* CHINOOK      CLOUDY    46  45  96 W10       29.81R
* FORT BENTON  MOCLDY    46  41  83 SW10      29.89S
* DENTON       N/A       45  40  83 W8         N/A
* JUDITH GAP   N/A       40  39  96 NW6        N/A   WCI  36
* LOMA         N/A       47  42  83 SW6G11     N/A
$$

MTZ017>020-022>027-061-062-011000-
NORTHEAST MONTANA
CITY           SKY/WX    TMP DP  RH WIND       PRES   REMARKS
GLASGOW        CLOUDY    50  46  86 W18G29    29.66R
GLENDIVE       CLOUDY    54  48  80 W18G25    29.65R
JORDAN         MOCLDY    48  45  89 NW22G31   29.73R
SIDNEY         CLOUDY    54  50  86 W18G23    29.59R
WOLF POINT     CLOUDY    55  48  77 W18G28    29.61S
* BEAVER HILL  N/A       51  49  93 W15G26     N/A
* CIRCLE       N/A       51  48  90 W9G18      N/A
* LINDSAY DVD  N/A       50  49  96 W21G29     N/A
* NAVAJO       N/A       50  49  96 NW25G33    N/A
$$

MTZ028>042-056>058-011000-
SOUTHCENTRAL AND SOUTHEAST MONTANA
CITY           SKY/WX    TMP DP  RH WIND       PRES   REMARKS
BAKER          CLOUDY    52  50  93 W16       29.67S
BILLINGS       CLOUDY    50  39  66 W10       29.85R
LIVINGSTON     MOCLDY    45  34  65 W15       29.93R
MILES CITY     LGT RAIN  52  46  80 NW18G28   29.72R
* LAUREL APT   CLOUDY    50  36  59 W7         N/A
* ROUNDUP APT  MOCLDY    50  37  61 N/A        N/A
* ALZADA       N/A       51  49  93 W8         N/A
* HYSHAM       N/A       49  40  71 W12G18     N/A
* LAME DEER    N/A       47  43  86 NW12G20    N/A
* REED POINT   N/A       50  29  44 W14G20     N/A
* ROSCOE HILL  N/A       44  21  40 E2         N/A
$$

REGIONAL REPORTS...DAKOTAS
CITY           SKY/WX    TMP DP  RH WIND       PRES   REMARKS
WILLISTON      CLOUDY    54  50  86 W14G29    29.50R
DICKINSON      CLOUDY    54  52  93 W20G29    29.56R
BEACH          N/A       52  52 100 W21G29    29.63R
CROSBY         N/A      N/A N/A N/A N/A        N/A
TIOGA          CLOUDY    52  52 100 W18G25    29.48F
WATFORD CITY   CLOUDY    52  52 100 W16G22    29.51R
BISMARCK       CLOUDY    55  54  96 SW7       29.54R
GRAND FORKS    CLOUDY    63  55  75 S20G28    29.50R
FARGO          MOCLDY    63  57  81 S16G25    29.59R
BUFFALO SD     PTCLDY    48  46  93 W14       29.63R
RAPID CITY     CLOUDY    54  46  74 W6        29.75R
$$

REGIONAL REPORTS...WYOMING/IDAHO/WASHINGTON
CITY           SKY/WX    TMP DP  RH WIND       PRES   REMARKS
GILLETTE       CLOUDY    48  45  89 W12       29.83R
SHERIDAN       CLOUDY    50  41  71 NW15      29.85R
CODY           CLOUDY    45  41  86 CALM      29.88F
YELLOWSTONE LA CLOUDY    32  30  92 CALM      29.98R
SALMON         CLOUDY    43  37  79 CALM      30.01S
MULLAN PASS    CLEAR     34  32  92 NW7       30.01S WCI  28
SAND POINT     FOG       36  36 100 W3        30.02R VSB M1/4
SPOKANE        CLEAR     45  34  65 SW5       30.03R
$$

REGIONAL REPORTS...ALBERTA
CITY           SKY/WX    TMP DP  RH WIND       PRES   REMARKS
CALGARY        N/A       39  32  76 E2        29.87F
LETHBRIDGE     CLEAR     37  36  96 W6        29.89R WCI  32
MEDICINE HAT   CLEAR     45  39  80 W10       29.82R
EDMONTON       N/A       36  34  92 SW6       29.81F WCI  31
WATERTON GATE  N/A       39  36  89 S8         N/A   WCI  33
CARDSTON       N/A       43  36  76 W9         N/A
MILK RIVER     N/A       39  36  89 W12        N/A   WCI  32
$$

REGIONAL REPORTS...SASKATCHEWAN
CITY           SKY/WX    TMP DP  RH WIND       PRES   REMARKS
SWIFT CURRENT  CLOUDY    48  45  89 NW18G24   29.65R
MOOSE JAW      LGT RAIN  52  50  93 NW18      29.53R
REGINA         LGT RAIN  48  48 100 W8        29.48S
VAL MARIE      N/A       50  45  83 NW17       N/A
ASSINIBOIA     N/A       50  48  93 NW20       N/A
CORONACH       N/A       50  48  93 NW21G29    N/A

$$



USA.gov is the U.S. government's official web portal to all federal, state and local government web resources and services.